Regional Weather Roundup
Issued by NWS

Home | Current Version | Previous Version | Graphics & Text | Print | Product List | Glossary On
Versions: 1 2 3 4 5 6 7 8 9 10 11 12 13 14 15 16 17 18 19 20 21 22 23 24 25 26 27 28 29 30 31 32 33 34 35 36 37 38 39 40 41 42 43 44 45 46 47 48 49 50
000
ASUS45 KTFX 272304
RWRMT
MONTANA HOURLY WEATHER ROUNDUP
NATIONAL WEATHER SERVICE GREAT FALLS MT
404 PM MST THU NOV 27 2014

NOTE: "FAIR" INDICATES FEW OR NO CLOUDS BELOW 12000 FEET WITH NO
SIGNIFICANT WEATHER AND/OR OBSTRUCTIONS TO VISIBILITY.

* THESE STATIONS ARE NOT UNDER NWS QUALITY CONTROL. THEY DO NOT
   REPORT WEATHER SUCH AS PRECIPITATION OR FOG.

MTZ001>007-043-280000-
WEST OF THE DIVIDE
CITY           SKY/WX    TMP DP  RH WIND       PRES   REMARKS
KALISPELL      CLOUDY    37  36  96 CALM      29.80F
MISSOULA       CLOUDY    50  39  66 NW12      29.90R
BUTTE          CLOUDY    41  30  65 S6        29.95F
MULLAN PASS    CLOUDY    36  34  92 SW10G21   29.86F WCI  29
* ESSEX        N/A       38  37  96 SW2        N/A
* LINCOLN      N/A       41  36  82 SE1        N/A
* LOOKOUT PASS N/A       41  37  86 SE8G14     N/A
* POLSON       N/A       47  38  71 SW4G16     N/A
* SEELEY LAKE  N/A       37  35  92 N3G8       N/A
* THOMP F APT  PTCLDY    42  28  58 SE2G11     N/A
* YAAK HILL    N/A       46  44  93 S1         N/A
$$

MTZ008-052>055-280000-
SOUTHWEST MONTANA
CITY           SKY/WX    TMP DP  RH WIND       PRES   REMARKS
BOZEMAN        PTSUNNY   48  30  50 SE8       29.92F
DILLON         PTSUNNY   50  30  46 SW10      29.98F
* W YELLOWSTON PTSUNNY   39  30  70 SW4G15     N/A
* ENNIS APT    PTSUNNY   50  30  46 SE22G28    N/A
* THREE FORKS  PTCLDY    52  30  43 N/A        N/A
* BOULDER HILL N/A       50  24  36 S12G17     N/A
* MONIDA PASS  N/A       36  29  76 SE12G17    N/A   WCI  28
* RAYNOLDS PAS N/A       37  20  50 SE18       N/A   WCI  27
* WHITEHALL    N/A       58  31  36 SW14G24    N/A
* WISE RIVER   N/A       50  29  44 NW5G16     N/A
$$

MTZ009>010-012-014-046-048-049-054-280000-
EAST SLOPES AND CENTRAL MONTANA
CITY           SKY/WX    TMP DP  RH WIND       PRES   REMARKS
CUT BANK       SUNNY     46  36  68 W30G39    29.69R
GREAT FALLS    SUNNY     55  34  45 W29G36    29.73F
HELENA         PTCLDY    55  30  39 S7        29.83F
MALMSTROM AFB  SUNNY     55  34  45 SW28G40   29.75S
* DEARBORN     N/A       60  32  35 S22G32     N/A
* EAST GLACIER N/A       38  36  93 W24G32     N/A   WCI  27
* PENDROY      N/A       50  31  48 W33G42     N/A
* ROGERS PASS  N/A       43  34  71 SE15G27    N/A
* SAINT MARY   N/A       40  37  89 S8G20      N/A   WCI  35
* SWEET GRASS  N/A       27  27 100 N9G14      N/A   WCI  18
$$

MTZ011-013-016-021-035-040-045-047-050-051-280000-
NORTH CENTRAL MONTANA
CITY           SKY/WX    TMP DP  RH WIND       PRES   REMARKS
HAVRE          PTCLDY    48  37  66 NW12      29.71R
LEWISTOWN      SUNNY     50  36  59 SW12      29.80R
* N BAR RANCH  SUNNY     54  30  40 W21G40    29.78R
* CHESTER      N/A       48  34  59 NW6G13     N/A
* DENTON       N/A       52  29  41 W10G15     N/A
* GEYSER       N/A       52  27  38 SW15G22    N/A
* JUDITH GAP   N/A       49  28  44 SW34G41    N/A
* LOMA         N/A       57  38  49 SW15G24    N/A
$$

MTZ017>020-022>027-061-062-280000-
NORTHEAST MONTANA
CITY           SKY/WX    TMP DP  RH WIND       PRES   REMARKS
GLASGOW        SUNNY     32  28  85 E9        29.75R WCI  24
GLENDIVE       PTCLDY    36  28  73 S10       29.77F WCI  29
JORDAN         SUNNY     46  36  68 W6        29.74S
SIDNEY         CLOUDY    32  27  82 SE6       29.81F WCI  26
WOLF POINT     SUNNY     32  27  82 NE9       29.78R WCI  24
* BEAVER HILL  N/A       37  29  73 SW9G17     N/A   WCI  30
* CIRCLE       N/A       43  35  73 SW3        N/A
* LINDSAY DVD  N/A       44  32  63 SW20G27    N/A
* NAVAJO       N/A       18  15  88 E9G14      N/A   WCI   7
* SACO         N/A       31  29  92 NE11       N/A   WCI  22
$$

MTZ028>042-056>058-280000-
SOUTHCENTRAL AND SOUTHEAST MONTANA
CITY           SKY/WX    TMP DP  RH WIND       PRES   REMARKS
BAKER          PTSUNNY   43  30  60 W9        29.80S
BILLINGS       PTCLDY    50  30  46 SW17      29.85S
LIVINGSTON     PTCLDY    55  28  35 SW35G45   29.89F
MILES CITY     SUNNY     41  34  76 S7        29.79F
* LAUREL APT   PTCLDY    45  25  45 SW6        N/A
* ALZADA       N/A       38  32  79 E4         N/A
* HYSHAM       N/A       50  27  41 W7G12      N/A
* LAME DEER    N/A       50  29  44 W12G24     N/A
* REED POINT   N/A       43  36  76 SE4        N/A
* ROSCOE HILL  N/A       52  13  21 SW26G46    N/A
$$

REGIONAL REPORTS...DAKOTAS
CITY           SKY/WX    TMP DP  RH WIND       PRES   REMARKS
WILLISTON      CLOUDY    19  16  88 E12       29.85S WCI   6
DICKINSON      CLOUDY    25  19  78 S17       29.81F WCI  12
BEACH          PTCLDY    32  28  85 S12       29.78F WCI  23
CROSBY         LGT SNOW  16  16 100 E16       29.91S VSB 1    WCI   1
BISMARCK       LGT SNOW  12   9  88 SE20G25   30.00F VSB 3    WCI  -6
GRAND FORKS    CLOUDY     3  -4  72 S12       30.28F WCI -14
FARGO          CLOUDY     9  -2  61 SE14      30.28F WCI  -7
BUFFALO SD     PTCLDY    30  23  75 S13       29.78F WCI  20
RAPID CITY     SUNNY     34  27  76 E3        29.88F
$$

REGIONAL REPORTS...WYOMING/IDAHO/WASHINGTON
CITY           SKY/WX    TMP DP  RH WIND       PRES   REMARKS
GILLETTE       SUNNY     46  30  54 SW17      29.90R
SHERIDAN       SUNNY     50  27  41 W9        29.87S
CODY           PTCLDY    54  27  35 SW21      29.96S
YELLOWSTONE LA PTSUNNY   37  28  70 VRB3      30.20R
SALMON         CLOUDY    39  36  89 CALM      29.99R
MULLAN PASS    CLOUDY    36  34  92 SW10G21   29.86S WCI  29
SAND POINT     CLOUDY    48  45  89 S5        29.76F
SPOKANE        PTSUNNY   54  43  67 SW18      29.79F

$$



USA.gov is the U.S. government's official web portal to all federal, state and local government web resources and services.